SCP
0 0 0 0 0 0 0 0 0 0 0 0 0 0 0 0 0 0 0 0 0 0 0 0 1 1 1 1 1 1 0 1 1 1 1 1 1 0 0 0 0 0 0 0 0 0 0 0 0
0 0 0 0 0 0 0 0 0 0 0 0 0 0 0 0 -0 0 0 0 0 0 0 0 1 1 1 1 1 1 0 0 1 1 1 1 1 1 0 0 0 0 0 0 0 0 0 0 0
0 0 0 0 0 0 0 0 0 0 0 0 0 0 0 0 0 0 0 -0 0 0 0 1 1 1 1 1 1 1 1 1 1 1 1 1 1 1 0 0 0 0 0 0 0 0 0 0 0
0 0 0 0 0 0 0 0 0 0 0 0 0 0 0 0 0 0 0 0 0 0 0 0 1 1 1 1 1 0 1 0 0 0 0 0 0 0 0 0 0 0 0 0 0 0 0 0 0
0 0 0 0 0 0 0 0 0 0 0 0 0 0 0 0 0 0 0 0 0 0 1 1 1 1 1 1 0 1 1 0 0 0 0 0 0 0 0 0 0 0 0 0 0 0 0 0 0
0 0 0 0 0 0 0 0 0 0 0 0 0 0 0 0 0 0 0 0 0 1 1 1 1 1 0 0 0 0 1 1 1 1 0 1 0 0 0 0 0 0 0 0 0 0 0 0 0
0 0 0 0 0 0 0 0 0 0 0 0 0 0 0 0 0 0 0 0 0 0 1 1 1 1 0 0 0 0 0 0 0 0 1 0 0 0 0 0 0 0 0 0 0 0 0 0 0
0 0 0 0 0 0 0 0 0 0 0 0 0 0 0 0 0 0 0 0 0 1 1 1 1 1 1 0 0 0 0 0 0 0 0 0 0 0 0 0 0 0 0 0 0 0 0 0 0
0 0 0 0 0 0 0 0 0 0 0 0 0 0 0 0 0 0 0 1 1 1 1 1 1 1 0 0 0 0 0 0 0 0 0 0 0 0 0 0 0 0 0 0 0 0 0 0 0
0 0 0 0 0 0 0 0 0 0 0 0 0 0 0 0 0 0 0 0 1 1 1 1 1 1 1 0 0 0 0 0 0 0 0 0 0 0 0 0 0 0 0 0 0 0 0 0 0
0 0 0 0 0 0 0 0 0 0 0 0 0 0 0 0 0 0 0 0 0 1 1 1 1 1 1 1 0 0 0 0 0 0 0 0 0 0 0 0 0 0 0 0 0 0 0 0 0
0 0 0 0 0 0 0 0 0 0 0 0 0 0 0 0 0 0 0 0 0 1 1 1 1 1 0 0 0 0 0 0 0 0 0 0 0 0 0 0 0 0 0 0 0 0 0 0 0
0 0 0 0 0 0 0 0 0 0 0 0 0 0 0 0 0 0 0 0 0 0 1 1 1 1 0 0 0 0 0 0 0 0 0 0 0 0 0 0 0 0 0 0 0 0 0 0 0
0 0 0 0 0 0 0 0 0 0 0 0 0 0 0 0 0 0 0 0 0 0 1 1 1 0 0 0 0 0 0 0 0 0 0 0 0 0 0 0 0 0 0 0 0 0 0 0 0
0 0 0 0 0 0 0 0 0 0 0 0 0 0 0 0 0 0 0 0 0 0 1 1 1 0 0 0 0 0 0 0 0 0 0 0 0 0 0 0 0 0 0 0 0 0 0 0 0
0 0 0 0 0 0 0 0 0 0 0 0 0 0 0 0 0 0 0 0 0 0 0 0 0 0 0 0 0 0 0 0 0 0 0 0 0 0 0 0 0 0 0 0 0 0 0 0 0
0 0 0 0 0 0 0 0 0 0 0 0 0 0 0 0 0 0 0 0 0 0 0 0 0 0 0 0 0 0 0 0 0 0 0 0 0 0 0 0 0 0 0 0 0 0 0 0 0
0 0 0 0 0 0 0 0 0 0 0 0 0 0 0 0 0 0 0 0 0 0 0 0 0 0 0 0 0 0 0 0 0 0 0 0 0 0 0 0 0 0 0 0 0 0 0 0 0
0 0 0 0 0 0 0 0 0 0 0 0 0 0 0 0 0 0 0 0 0 0 0 0 0 0 0 0 0 0 0 0 0 0 0 0 0 0 0 0 0 0 0 0 0 0 0 0 0
0 0 0 0 0 0 0 0 0 0 0 0 0 0 0 0 0 0 0 0 0 0 0 0 0 0 0 0 0 0 0 0 0 0 0 0 0 0 0 0 0 0 0 0 0 0 0 0 0
0 0 0 0 0 0 0 0 0 0 0 0 0 0 0 0 0 0 0 0 0 0 0 0 0 0 0 0 0 0 0 0 0 0 0 0 0 0 0 0 0 0 0 0 0 0 0 0 0
0 0 0 0 0 0 0 0 0 0 0 0 0 0 0 0 0 0 0 0 0 0 0 0 0 0 0 0 0 0 0 0 0 0 0 0 0 0 0 0 0 0 0 0 0 0 0 0 0
0 0 0 0 0 0 0 0 0 0 0 0 0 0 0 0 0 0 0 0 0 0 0 0 0 0 0 0 0 0 0 0 0 0 0 0 0 0 0 0 0 0 0 0 0 0 0 0 0
-0 0 0 -0 -0 0 0 0 0 0 0 0 0 0 0 0 0 0 0 0 0 0 0 0 0 0 0 0 0 0 0 0 0 0 0 0 0 0 0 0 0 0 0 0 0 0 0 0 0
-0 0 0 -0 0 0 0 0 0 0 0 0 0 0 0 0 0 0 0 0 0 0 0 0 0 0 0 0 0 0 0 0 0 0 0 0 0 0 0 0 0 0 0 0 0 0 0 0 0
-0 0 0 0 -0 0 -0 0 0 0 -0 0 0 0 0 0 0 0 0 0 0 0 0 0 0 0 0 0 0 0 0 0 0 0 0 0 0 0 0 0 0 0 0 0 0 0 0 0 0
0 0 -0 0 0 0 0 0 0 -0 0 0 0 0 0 0 0 0 0 0 0 0 0 0 0 0 0 0 0 0 0 0 0 0 0 0 0 0 0 0 0 0 0 0 0 0 0 0 0
0 0 0 0 0 0 0 -0 0 0 0 0 0 0 0 0 0 0 0 0 0 0 0 0 0 0 0 0 0 0 0 0 0 0 0 0 0 0 0 0 0 0 0 0 0 0 0 0 0
0 -0 0 0 0 -0 -0 0 0 -0 -0 0 0 0 0 0 0 0 0 0 0 0 0 0 0 0 0 0 0 0 0 0 0 0 0 0 0 0 0 0 0 0 0 0 0 0 0 0 0
-0 0 0 -0 0 0 -0 0 -0 -0 -0 -0 0 0 0 0 0 0 0 0 0 0 0 0 0 0 0 0 0 0 0 0 0 0 0 0 0 0 0 0 0 0 0 0 0 0 0 0 0
Wind_Speed_500mb
33 24 12 19 16 17 40 55 36 35 27 34 36 22 31 48 19 15 8 18 35 38 48 64 65 63 57 53 50 49 48 49 46 45 43 41 39 37 34 31 30 29 29 26 23 18 18 18 17
22 24 20 26 21 33 35 52 52 36 38 9 28 26 35 39 58 29 16 18 23 40 48 68 67 62 57 53 48 47 46 45 46 44 43 43 41 39 35 33 31 32 29 27 22 17 18 17 16
27 27 24 12 35 42 44 43 42 46 39 40 26 26 42 34 44 49 29 31 23 43 46 60 67 61 56 53 49 46 45 44 47 45 45 44 41 39 36 35 35 35 31 22 19 21 19 17 17
24 22 25 29 51 54 62 48 32 12 37 48 45 23 32 29 8 22 30 26 31 42 45 60 67 63 61 56 51 49 46 43 44 45 46 44 44 41 38 38 36 34 24 23 24 22 20 18 16
30 29 27 41 62 60 49 55 56 23 30 37 54 50 38 22 40 38 28 30 38 42 53 60 66 66 64 59 53 51 48 47 44 45 46 45 42 43 41 39 30 27 28 28 25 21 19 17 15
33 32 30 44 62 59 59 69 55 46 42 38 20 50 49 47 39 34 27 31 38 54 58 57 66 67 65 62 55 53 51 48 48 45 44 46 46 44 37 31 31 33 30 27 24 21 18 16 16
41 31 47 58 60 58 57 63 53 43 51 57 32 33 39 28 34 27 30 38 47 47 54 57 68 67 64 62 60 57 54 52 49 47 45 44 46 44 36 35 34 32 30 26 22 20 19 19 18
57 32 61 55 55 70 57 58 69 68 64 61 58 27 32 32 34 30 34 41 50 50 52 58 65 70 71 64 64 61 54 55 55 54 52 48 46 41 39 35 33 30 27 23 21 20 19 18 16
49 35 42 70 72 63 60 58 60 49 57 58 65 62 48 10 30 33 35 42 52 56 62 67 72 71 70 64 61 56 58 62 62 62 58 50 48 44 37 37 32 28 24 22 19 18 17 16 14
44 35 68 70 63 58 59 61 59 50 52 59 65 52 49 33 36 42 46 50 63 66 72 72 75 81 72 63 58 54 61 62 62 59 56 51 47 45 44 39 34 30 26 23 20 19 18 17 16
65 51 62 66 91 83 61 61 58 52 49 58 52 65 59 41 48 47 51 55 67 71 78 77 80 79 74 70 59 60 62 63 62 59 56 55 51 48 45 40 36 32 29 26 24 22 22 20 18
57 65 71 84 88 74 56 72 56 68 70 65 64 55 41 52 54 55 52 54 53 63 79 81 83 82 76 67 68 65 64 66 63 61 60 57 53 48 47 43 40 36 32 29 27 26 23 22 20
56 62 86 89 85 75 76 62 64 71 85 69 58 30 24 37 47 49 50 49 51 62 78 87 87 83 82 77 74 69 63 68 67 63 60 56 56 55 51 47 42 37 34 31 29 26 25 24 22
68 69 68 78 78 73 60 62 74 98 75 68 63 73 53 43 40 43 46 51 57 64 67 83 91 86 85 83 80 73 67 65 70 68 62 59 57 55 52 49 45 41 38 35 32 29 27 27 26
67 61 61 58 55 61 76 73 75 89 82 83 81 77 65 61 53 50 45 52 55 66 71 74 82 89 88 84 82 77 74 69 69 72 63 62 60 58 55 52 50 47 44 39 36 33 32 30 29
54 47 38 60 61 63 56 68 67 84 88 80 82 78 73 83 74 53 53 48 51 52 72 72 78 81 90 86 86 83 79 73 69 67 67 65 65 63 60 58 55 53 47 43 40 37 34 33 30
40 47 63 60 53 63 66 67 62 78 74 72 87 91 79 72 73 66 59 52 51 58 55 77 84 76 88 90 86 86 81 76 72 67 67 68 71 70 65 61 57 55 50 47 43 40 38 35 32
46 47 56 63 58 63 62 68 63 82 79 74 77 64 85 85 84 75 65 68 62 61 54 51 64 85 86 92 89 87 82 78 76 75 72 72 74 73 67 63 61 56 55 52 48 44 40 36 34
54 54 65 57 56 55 63 58 55 49 56 56 65 77 71 72 85 84 80 72 72 72 67 65 67 69 86 96 99 92 92 88 86 83 78 76 75 74 69 66 66 62 59 52 47 47 44 42 37
43 45 52 53 62 54 56 57 50 58 58 57 66 62 70 74 68 66 59 63 75 77 76 70 72 76 75 92 101 100 95 93 91 88 81 79 78 76 75 76 76 69 60 56 56 56 49 47 42
48 49 51 53 54 56 54 62 58 56 56 74 73 70 72 66 57 53 53 53 63 63 67 73 75 82 75 77 92 89 83 92 91 94 89 85 85 84 82 84 81 68 63 64 64 59 54 49 45
49 50 49 51 45 31 39 41 55 55 56 57 53 70 69 74 68 64 64 57 58 59 56 58 73 84 77 70 83 92 100 102 106 104 99 90 86 90 87 87 79 74 71 71 66 58 55 56 52
44 42 40 44 40 41 43 26 40 46 56 47 54 71 75 77 73 70 68 63 47 47 58 58 57 69 71 76 78 84 92 100 92 98 98 97 90 96 96 89 85 82 76 73 70 66 64 60 55
34 38 34 34 31 32 39 34 36 44 50 39 51 66 73 77 73 67 59 55 56 48 43 43 54 52 52 59 76 83 86 90 93 93 97 100 96 100 104 95 91 88 83 79 76 69 63 62 59
34 22 16 17 20 27 33 30 41 29 55 56 47 52 62 64 63 53 55 53 46 43 52 55 57 58 59 64 71 78 84 91 96 98 99 97 99 105 108 103 100 96 90 84 78 72 69 67 64
43 15 14 18 23 30 32 14 34 47 55 21 19 28 35 38 8 12 21 24 23 26 36 49 54 60 72 78 82 85 87 87 91 92 100 101 101 99 101 104 103 99 93 88 82 77 73 70 65
5 12 32 24 35 25 24 40 46 32 48 35 20 17 28 20 14 9 3 19 26 29 37 45 40 48 59 71 81 84 87 88 85 82 93 101 100 97 96 99 104 102 96 92 87 82 76 71 66
22 21 10 10 8 25 23 18 15 27 22 18 20 20 21 16 9 8 8 10 21 25 30 37 42 52 54 58 66 73 78 82 83 76 88 94 98 97 95 95 99 103 100 93 87 81 76 71 65
13 19 11 13 8 14 18 8 14 19 21 18 19 22 17 17 16 16 13 15 22 25 28 33 40 47 51 56 59 62 68 73 78 82 88 93 88 91 87 82 89 98 99 93 89 82 76 72 67
12 26 24 13 6 12 5 4 11 12 16 18 15 21 24 25 24 22 22 17 15 14 17 23 31 39 47 54 55 58 61 65 72 79 84 89 86 84 79 78 83 91 94 92 90 85 80 76 70
Wind_Direction_500mb
224 208 207 199 221 233 240 239 248 234 240 252 246 257 237 242 232 203 4 201 197 186 201 188 191 192 188 190 191 189 187 183 187 188 188 188 185 185 186 184 186 183 177 180 189 181 178 172 168
202 194 204 236 240 231 235 246 241 240 236 239 245 236 230 246 240 238 301 276 218 182 188 186 190 188 186 189 189 187 186 186 186 189 189 188 185 187 187 189 187 183 182 195 192 180 174 166 156
190 193 211 225 233 240 243 243 245 242 219 236 229 221 233 234 240 247 249 268 197 179 183 186 187 189 186 189 186 185 182 184 186 187 190 186 187 187 187 185 185 183 186 186 185 177 166 157 153
191 203 241 243 237 231 244 256 268 270 250 231 229 239 225 231 237 221 242 233 178 180 185 194 190 193 190 190 185 181 176 180 181 180 182 182 184 181 184 182 184 188 191 181 174 169 164 165 168
211 230 233 234 240 248 249 248 255 221 254 236 231 236 240 205 231 247 239 204 181 179 188 193 189 190 190 189 185 182 180 177 180 182 178 176 177 176 176 185 193 189 174 172 175 177 179 182 185
218 237 236 236 243 237 244 253 253 257 238 237 249 237 245 245 241 235 224 192 185 185 191 189 188 189 190 191 186 181 178 176 176 176 177 178 176 179 187 183 175 173 176 182 185 187 188 192 199
232 226 241 247 252 248 242 241 247 237 246 242 228 251 242 225 227 221 195 190 197 190 185 194 189 191 192 192 188 185 179 180 181 183 184 188 188 190 186 183 182 183 185 187 193 200 208 217 222
233 244 254 249 255 254 254 248 240 245 246 250 241 234 248 237 203 198 211 198 189 183 192 190 191 192 194 196 190 187 186 185 184 188 192 191 194 194 192 191 190 189 192 197 206 216 221 219 215
234 246 241 243 244 242 244 251 246 246 247 254 244 234 237 243 182 188 197 192 189 191 191 194 193 196 197 191 193 186 186 186 185 187 190 191 193 193 192 195 194 198 201 207 210 211 210 209 206
224 228 237 241 248 255 257 255 250 251 232 251 248 241 238 240 198 204 201 197 192 194 193 200 196 194 197 193 190 192 191 190 189 190 187 187 194 195 197 197 197 203 206 207 207 207 207 210 211
231 234 247 250 255 260 264 260 258 247 244 242 236 239 235 232 217 210 212 208 210 202 195 202 201 196 199 196 190 201 197 192 193 193 191 193 195 196 200 200 201 204 204 206 208 208 214 220 224
245 242 246 253 263 269 258 258 260 249 251 247 263 259 248 219 219 218 218 213 206 202 203 203 206 205 209 211 205 207 207 200 194 199 197 198 200 198 202 204 206 209 209 211 214 219 224 227 232
249 242 248 254 261 261 264 265 247 253 249 247 247 245 243 224 227 227 223 217 210 205 207 206 208 210 213 212 212 212 212 212 201 202 203 202 203 204 207 207 212 213 214 217 221 225 231 236 239
263 269 259 254 255 259 255 254 257 246 248 252 250 248 245 245 235 231 226 218 212 212 208 212 209 214 214 214 217 215 214 213 215 218 208 206 209 210 211 213 214 214 217 221 223 227 230 235 240
266 267 264 259 265 261 246 251 242 250 249 249 248 248 247 246 242 238 232 221 218 216 209 212 210 213 216 218 220 218 216 215 217 219 219 210 211 212 214 215 216 217 219 222 226 228 230 233 237
276 268 268 252 249 253 257 248 246 248 249 250 249 244 241 247 245 239 234 229 219 219 218 213 210 215 214 219 221 220 220 219 221 224 225 220 216 216 215 215 216 219 221 224 226 228 230 233 234
250 253 252 254 246 239 234 248 252 255 258 248 238 241 237 241 242 236 232 227 220 215 221 213 217 212 217 215 221 225 223 220 223 225 227 225 223 219 218 217 218 221 223 225 226 228 231 233 233
260 260 245 250 248 258 245 243 248 247 247 248 257 245 230 232 237 236 235 228 224 224 226 231 226 223 219 218 218 223 225 223 225 227 227 229 227 225 220 220 223 224 224 224 225 230 230 231 232
250 253 269 271 273 252 253 266 263 250 246 241 247 241 245 234 234 237 238 239 237 239 233 232 230 228 222 220 218 217 222 223 225 226 227 228 230 227 224 225 227 226 226 228 230 232 230 228 229
274 281 277 273 266 265 273 272 271 255 260 249 242 246 242 242 238 232 233 229 234 240 243 225 219 232 223 222 224 222 221 223 226 227 227 228 228 229 225 226 228 225 224 226 228 228 224 223 224
256 254 262 267 269 266 266 266 258 262 265 248 256 246 247 249 237 231 230 224 231 233 236 226 217 233 231 224 222 219 221 224 225 226 228 228 224 226 224 226 228 227 227 230 230 228 225 227 224
263 262 263 263 267 265 254 261 251 253 256 242 235 241 239 245 245 239 236 234 235 235 234 233 221 235 236 226 221 219 221 221 225 227 229 228 224 226 227 228 230 230 228 230 231 229 228 228 229
267 259 262 264 264 270 259 260 265 251 252 246 236 229 233 239 242 237 239 239 237 237 237 237 232 235 237 235 230 227 225 228 229 229 231 231 226 225 229 229 229 231 230 231 232 228 225 227 231
268 260 260 262 257 257 246 235 253 235 242 245 230 227 229 233 234 233 235 237 235 228 233 232 228 230 235 236 233 229 231 229 221 230 233 233 229 226 227 228 229 232 232 231 232 230 230 231 232
239 224 238 240 222 247 242 227 238 257 227 242 254 216 229 231 233 229 229 230 236 231 243 243 239 234 234 232 232 235 235 231 232 232 236 234 232 228 229 228 228 229 231 230 232 232 231 233 233
286 248 235 270 251 271 266 226 243 227 246 211 300 314 235 231 221 245 229 233 239 229 224 240 242 240 237 236 237 234 235 233 232 231 237 239 239 237 234 232 229 230 230 230 230 230 231 233 233
346 226 251 247 255 276 273 273 247 259 222 249 316 296 248 71 56 8 261 215 232 230 221 218 222 238 237 238 238 238 236 234 232 229 237 240 242 241 238 235 232 230 230 229 230 230 231 232 233
293 317 280 202 260 259 251 270 8 7 10 3 12 20 16 26 20 358 334 261 244 243 237 233 228 224 225 235 239 240 239 240 237 228 233 236 239 240 239 235 232 230 230 230 229 229 230 231 232
303 340 326 269 238 275 279 79 4 356 359 1 27 30 22 16 3 351 315 292 280 266 258 248 243 235 230 226 235 238 237 238 238 235 231 238 240 242 242 238 235 231 230 228 228 229 229 229 230
331 320 317 291 240 243 257 74 28 12 12 1 10 23 19 20 14 12 14 352 331 300 268 255 245 242 235 228 228 235 238 238 239 238 235 240 242 245 246 238 233 232 230 228 228 227 227 228 228
Wind_Speed_850mb
33 24 12 19 16 17 40 55 36 35 27 34 36 22 31 48 19 15 8 18 35 38 48 64 65 63 57 53 50 49 48 49 46 45 43 41 39 37 34 31 30 29 29 26 23 18 18 18 17
22 24 20 26 21 33 35 52 52 36 38 9 28 26 35 39 58 29 16 18 23 40 48 68 67 62 57 53 48 47 46 45 46 44 43 43 41 39 35 33 31 32 29 27 22 17 18 17 16
27 27 24 12 35 42 44 43 42 46 39 40 26 26 42 34 44 49 29 31 23 43 46 60 67 61 56 53 49 46 45 44 47 45 45 44 41 39 36 35 35 35 31 22 19 21 19 17 17
24 22 25 29 51 54 62 48 32 12 37 48 45 23 32 29 8 22 30 26 31 42 45 60 67 63 61 56 51 49 46 43 44 45 46 44 44 41 38 38 36 34 24 23 24 22 20 18 16
30 29 27 41 62 60 49 55 56 23 30 37 54 50 38 22 40 38 28 30 38 42 53 60 66 66 64 59 53 51 48 47 44 45 46 45 42 43 41 39 30 27 28 28 25 21 19 17 15
33 32 30 44 62 59 59 69 55 46 42 38 20 50 49 47 39 34 27 31 38 54 58 57 66 67 65 62 55 53 51 48 48 45 44 46 46 44 37 31 31 33 30 27 24 21 18 16 16
41 31 47 58 60 58 57 63 53 43 51 57 32 33 39 28 34 27 30 38 47 47 54 57 68 67 64 62 60 57 54 52 49 47 45 44 46 44 36 35 34 32 30 26 22 20 19 19 18
57 32 61 55 55 70 57 58 69 68 64 61 58 27 32 32 34 30 34 41 50 50 52 58 65 70 71 64 64 61 54 55 55 54 52 48 46 41 39 35 33 30 27 23 21 20 19 18 16
49 35 42 70 72 63 60 58 60 49 57 58 65 62 48 10 30 33 35 42 52 56 62 67 72 71 70 64 61 56 58 62 62 62 58 50 48 44 37 37 32 28 24 22 19 18 17 16 14
44 35 68 70 63 58 59 61 59 50 52 59 65 52 49 33 36 42 46 50 63 66 72 72 75 81 72 63 58 54 61 62 62 59 56 51 47 45 44 39 34 30 26 23 20 19 18 17 16
65 51 62 66 91 83 61 61 58 52 49 58 52 65 59 41 48 47 51 55 67 71 78 77 80 79 74 70 59 60 62 63 62 59 56 55 51 48 45 40 36 32 29 26 24 22 22 20 18
57 65 71 84 88 74 56 72 56 68 70 65 64 55 41 52 54 55 52 54 53 63 79 81 83 82 76 67 68 65 64 66 63 61 60 57 53 48 47 43 40 36 32 29 27 26 23 22 20
56 62 86 89 85 75 76 62 64 71 85 69 58 30 24 37 47 49 50 49 51 62 78 87 87 83 82 77 74 69 63 68 67 63 60 56 56 55 51 47 42 37 34 31 29 26 25 24 22
68 69 68 78 78 73 60 62 74 98 75 68 63 73 53 43 40 43 46 51 57 64 67 83 91 86 85 83 80 73 67 65 70 68 62 59 57 55 52 49 45 41 38 35 32 29 27 27 26
67 61 61 58 55 61 76 73 75 89 82 83 81 77 65 61 53 50 45 52 55 66 71 74 82 89 88 84 82 77 74 69 69 72 63 62 60 58 55 52 50 47 44 39 36 33 32 30 29
54 47 38 60 61 63 56 68 67 84 88 80 82 78 73 83 74 53 53 48 51 52 72 72 78 81 90 86 86 83 79 73 69 67 67 65 65 63 60 58 55 53 47 43 40 37 34 33 30
40 47 63 60 53 63 66 67 62 78 74 72 87 91 79 72 73 66 59 52 51 58 55 77 84 76 88 90 86 86 81 76 72 67 67 68 71 70 65 61 57 55 50 47 43 40 38 35 32
46 47 56 63 58 63 62 68 63 82 79 74 77 64 85 85 84 75 65 68 62 61 54 51 64 85 86 92 89 87 82 78 76 75 72 72 74 73 67 63 61 56 55 52 48 44 40 36 34
54 54 65 57 56 55 63 58 55 49 56 56 65 77 71 72 85 84 80 72 72 72 67 65 67 69 86 96 99 92 92 88 86 83 78 76 75 74 69 66 66 62 59 52 47 47 44 42 37
43 45 52 53 62 54 56 57 50 58 58 57 66 62 70 74 68 66 59 63 75 77 76 70 72 76 75 92 101 100 95 93 91 88 81 79 78 76 75 76 76 69 60 56 56 56 49 47 42
48 49 51 53 54 56 54 62 58 56 56 74 73 70 72 66 57 53 53 53 63 63 67 73 75 82 75 77 92 89 83 92 91 94 89 85 85 84 82 84 81 68 63 64 64 59 54 49 45
49 50 49 51 45 31 39 41 55 55 56 57 53 70 69 74 68 64 64 57 58 59 56 58 73 84 77 70 83 92 100 102 106 104 99 90 86 90 87 87 79 74 71 71 66 58 55 56 52
44 42 40 44 40 41 43 26 40 46 56 47 54 71 75 77 73 70 68 63 47 47 58 58 57 69 71 76 78 84 92 100 92 98 98 97 90 96 96 89 85 82 76 73 70 66 64 60 55
34 38 34 34 31 32 39 34 36 44 50 39 51 66 73 77 73 67 59 55 56 48 43 43 54 52 52 59 76 83 86 90 93 93 97 100 96 100 104 95 91 88 83 79 76 69 63 62 59
34 22 16 17 20 27 33 30 41 29 55 56 47 52 62 64 63 53 55 53 46 43 52 55 57 58 59 64 71 78 84 91 96 98 99 97 99 105 108 103 100 96 90 84 78 72 69 67 64
43 15 14 18 23 30 32 14 34 47 55 21 19 28 35 38 8 12 21 24 23 26 36 49 54 60 72 78 82 85 87 87 91 92 100 101 101 99 101 104 103 99 93 88 82 77 73 70 65
5 12 32 24 35 25 24 40 46 32 48 35 20 17 28 20 14 9 3 19 26 29 37 45 40 48 59 71 81 84 87 88 85 82 93 101 100 97 96 99 104 102 96 92 87 82 76 71 66
22 21 10 10 8 25 23 18 15 27 22 18 20 20 21 16 9 8 8 10 21 25 30 37 42 52 54 58 66 73 78 82 83 76 88 94 98 97 95 95 99 103 100 93 87 81 76 71 65
13 19 11 13 8 14 18 8 14 19 21 18 19 22 17 17 16 16 13 15 22 25 28 33 40 47 51 56 59 62 68 73 78 82 88 93 88 91 87 82 89 98 99 93 89 82 76 72 67
12 26 24 13 6 12 5 4 11 12 16 18 15 21 24 25 24 22 22 17 15 14 17 23 31 39 47 54 55 58 61 65 72 79 84 89 86 84 79 78 83 91 94 92 90 85 80 76 70
Wind_Direction_850mb
224 208 207 199 221 233 240 239 248 234 240 252 246 257 237 242 232 203 4 201 197 186 201 188 191 192 188 190 191 189 187 183 187 188 188 188 185 185 186 184 186 183 177 180 189 181 178 172 168
202 194 204 236 240 231 235 246 241 240 236 239 245 236 230 246 240 238 301 276 218 182 188 186 190 188 186 189 189 187 186 186 186 189 189 188 185 187 187 189 187 183 182 195 192 180 174 166 156
190 193 211 225 233 240 243 243 245 242 219 236 229 221 233 234 240 247 249 268 197 179 183 186 187 189 186 189 186 185 182 184 186 187 190 186 187 187 187 185 185 183 186 186 185 177 166 157 153
191 203 241 243 237 231 244 256 268 270 250 231 229 239 225 231 237 221 242 233 178 180 185 194 190 193 190 190 185 181 176 180 181 180 182 182 184 181 184 182 184 188 191 181 174 169 164 165 168
211 230 233 234 240 248 249 248 255 221 254 236 231 236 240 205 231 247 239 204 181 179 188 193 189 190 190 189 185 182 180 177 180 182 178 176 177 176 176 185 193 189 174 172 175 177 179 182 185
218 237 236 236 243 237 244 253 253 257 238 237 249 237 245 245 241 235 224 192 185 185 191 189 188 189 190 191 186 181 178 176 176 176 177 178 176 179 187 183 175 173 176 182 185 187 188 192 199
232 226 241 247 252 248 242 241 247 237 246 242 228 251 242 225 227 221 195 190 197 190 185 194 189 191 192 192 188 185 179 180 181 183 184 188 188 190 186 183 182 183 185 187 193 200 208 217 222
233 244 254 249 255 254 254 248 240 245 246 250 241 234 248 237 203 198 211 198 189 183 192 190 191 192 194 196 190 187 186 185 184 188 192 191 194 194 192 191 190 189 192 197 206 216 221 219 215
234 246 241 243 244 242 244 251 246 246 247 254 244 234 237 243 182 188 197 192 189 191 191 194 193 196 197 191 193 186 186 186 185 187 190 191 193 193 192 195 194 198 201 207 210 211 210 209 206
224 228 237 241 248 255 257 255 250 251 232 251 248 241 238 240 198 204 201 197 192 194 193 200 196 194 197 193 190 192 191 190 189 190 187 187 194 195 197 197 197 203 206 207 207 207 207 210 211
231 234 247 250 255 260 264 260 258 247 244 242 236 239 235 232 217 210 212 208 210 202 195 202 201 196 199 196 190 201 197 192 193 193 191 193 195 196 200 200 201 204 204 206 208 208 214 220 224
245 242 246 253 263 269 258 258 260 249 251 247 263 259 248 219 219 218 218 213 206 202 203 203 206 205 209 211 205 207 207 200 194 199 197 198 200 198 202 204 206 209 209 211 214 219 224 227 232
249 242 248 254 261 261 264 265 247 253 249 247 247 245 243 224 227 227 223 217 210 205 207 206 208 210 213 212 212 212 212 212 201 202 203 202 203 204 207 207 212 213 214 217 221 225 231 236 239
263 269 259 254 255 259 255 254 257 246 248 252 250 248 245 245 235 231 226 218 212 212 208 212 209 214 214 214 217 215 214 213 215 218 208 206 209 210 211 213 214 214 217 221 223 227 230 235 240
266 267 264 259 265 261 246 251 242 250 249 249 248 248 247 246 242 238 232 221 218 216 209 212 210 213 216 218 220 218 216 215 217 219 219 210 211 212 214 215 216 217 219 222 226 228 230 233 237
276 268 268 252 249 253 257 248 246 248 249 250 249 244 241 247 245 239 234 229 219 219 218 213 210 215 214 219 221 220 220 219 221 224 225 220 216 216 215 215 216 219 221 224 226 228 230 233 234
250 253 252 254 246 239 234 248 252 255 258 248 238 241 237 241 242 236 232 227 220 215 221 213 217 212 217 215 221 225 223 220 223 225 227 225 223 219 218 217 218 221 223 225 226 228 231 233 233
260 260 245 250 248 258 245 243 248 247 247 248 257 245 230 232 237 236 235 228 224 224 226 231 226 223 219 218 218 223 225 223 225 227 227 229 227 225 220 220 223 224 224 224 225 230 230 231 232
250 253 269 271 273 252 253 266 263 250 246 241 247 241 245 234 234 237 238 239 237 239 233 232 230 228 222 220 218 217 222 223 225 226 227 228 230 227 224 225 227 226 226 228 230 232 230 228 229
274 281 277 273 266 265 273 272 271 255 260 249 242 246 242 242 238 232 233 229 234 240 243 225 219 232 223 222 224 222 221 223 226 227 227 228 228 229 225 226 228 225 224 226 228 228 224 223 224
256 254 262 267 269 266 266 266 258 262 265 248 256 246 247 249 237 231 230 224 231 233 236 226 217 233 231 224 222 219 221 224 225 226 228 228 224 226 224 226 228 227 227 230 230 228 225 227 224
263 262 263 263 267 265 254 261 251 253 256 242 235 241 239 245 245 239 236 234 235 235 234 233 221 235 236 226 221 219 221 221 225 227 229 228 224 226 227 228 230 230 228 230 231 229 228 228 229
267 259 262 264 264 270 259 260 265 251 252 246 236 229 233 239 242 237 239 239 237 237 237 237 232 235 237 235 230 227 225 228 229 229 231 231 226 225 229 229 229 231 230 231 232 228 225 227 231
268 260 260 262 257 257 246 235 253 235 242 245 230 227 229 233 234 233 235 237 235 228 233 232 228 230 235 236 233 229 231 229 221 230 233 233 229 226 227 228 229 232 232 231 232 230 230 231 232
239 224 238 240 222 247 242 227 238 257 227 242 254 216 229 231 233 229 229 230 236 231 243 243 239 234 234 232 232 235 235 231 232 232 236 234 232 228 229 228 228 229 231 230 232 232 231 233 233
286 248 235 270 251 271 266 226 243 227 246 211 300 314 235 231 221 245 229 233 239 229 224 240 242 240 237 236 237 234 235 233 232 231 237 239 239 237 234 232 229 230 230 230 230 230 231 233 233
346 226 251 247 255 276 273 273 247 259 222 249 316 296 248 71 56 8 261 215 232 230 221 218 222 238 237 238 238 238 236 234 232 229 237 240 242 241 238 235 232 230 230 229 230 230 231 232 233
293 317 280 202 260 259 251 270 8 7 10 3 12 20 16 26 20 358 334 261 244 243 237 233 228 224 225 235 239 240 239 240 237 228 233 236 239 240 239 235 232 230 230 230 229 229 230 231 232
303 340 326 269 238 275 279 79 4 356 359 1 27 30 22 16 3 351 315 292 280 266 258 248 243 235 230 226 235 238 237 238 238 235 231 238 240 242 242 238 235 231 230 228 228 229 229 229 230
331 320 317 291 240 243 257 74 28 12 12 1 10 23 19 20 14 12 14 352 331 300 268 255 245 242 235 228 228 235 238 238 239 238 235 240 242 245 246 238 233 232 230 228 228 227 227 228 228